Regional Weather Roundup
Issued by NWS Northern Indiana

Home | Current Version | Previous Version | Graphics & Text | Print | Product List | Glossary On
Versions: 1 2 3 4 5 6 7 8 9 10 11 12 13 14 15 16 17 18 19 20 21 22 23 24 25 26 27 28 29 30 31 32 33 34 35 36 37 38 39 40 41 42 43 44 45 46 47 48 49 50
000
ASUS43 KIWX 221800
RWRIWX

KIWX WEATHER ROUNDUP
NATIONAL WEATHER SERVICE NORTHERN INDIANA
200 PM EDT WED OCT 22 2014

NOTE: "FAIR" INDICATES FEW OR NO CLOUDS BELOW 12,000 FEET WITH NO
SIGNIFICANT WEATHER AND/OR OBSTRUCTIONS TO VISIBILITY.

* THESE STATIONS ARE NOT UNDER NWS QUALITY CONTROL. THEY ALSO MAY NOT
  REPORT WEATHER SUCH AS PRECIPITATION OR FOG.

INZ001>027-221900-
NORTHERN INDIANA

CITY           SKY/WX    TMP DP  RH WIND       PRES   REMARKS
GARY*          SUNNY     54  36  50 NE7       30.36F
SOUTH BEND     SUNNY     54  32  43 N9        30.35F
6HR MIN TEMP:  32; 6HR MAX TEMP:  54;

ELKHART*       SUNNY     52  36  54 E5        30.34F
GOSHEN         MOSUNNY   49  40  71 E9        30.34F
6HR MIN TEMP:  32; 6HR MAX TEMP:  50;

ANGOLA*        CLOUDY    45  32  61 NE6       30.33F
FORT WAYNE     PTSUNNY   50  40  68 NE8       30.33F
6HR MIN TEMP:  40; 6HR MAX TEMP:  52;

PERU/GRISSOM   SUNNY     53  43  68 NE5       30.31F
6HR MIN TEMP:  33; 6HR MAX TEMP:  53;


$$
INZ028>050-221900-
CENTRAL INDIANA

CITY           SKY/WX    TMP DP  RH WIND       PRES   REMARKS
LAFAYETTE      SUNNY     53  36  52 E7        30.33F
6HR MIN TEMP:  33; 6HR MAX TEMP:  54;

KOKOMO*        SUNNY     54  39  58 NE6       30.32F VSB 1
6HR MIN TEMP:  34; 6HR MAX TEMP:  55;

MUNCIE*        MOSUNNY   52  40  63 E5        30.31F
6HR MIN TEMP:  42; 6HR MAX TEMP:  53;

INDIANAPOLIS   MOSUNNY   54  40  59 VRB7      30.30F
6HR MIN TEMP:  38; 6HR MAX TEMP:  54;


$$
MIZ043>046-050>051-056>058-064>065-071>073-077>080-221900-
SOUTHWEST LOWER MICHIGAN

CITY           SKY/WX    TMP DP  RH WIND       PRES   REMARKS
BATTLE CREEK   CLOUDY    46  38  73 NE8       30.35F
6HR MIN TEMP:  36; 6HR MAX TEMP:  46;

BENTON HARBOR  SUNNY     51  34  52 NE6       30.34F
6HR MIN TEMP:  28; 6HR MAX TEMP:  51;

COLDWATER*     CLOUDY    46  40  78 N8        30.34F
6HR MIN TEMP:  39; 6HR MAX TEMP:  46;

HILLSDALE*     CLOUDY    46  40  81 N3        30.33F
HOLLAND        SUNNY     52  35  52 VRB3      30.36F
6HR MIN TEMP:  31; 6HR MAX TEMP:  52;

GRAND RAPIDS   MOSUNNY   48  38  68 NE9       30.36F
6HR MIN TEMP:  31; 6HR MAX TEMP:  50;

KALAMAZOO      CLOUDY    46  37  71 VRB3      30.36F
6HR MIN TEMP:  29; 6HR MAX TEMP:  46;

STURGIS*       CLOUDY    45  37  76 NE5       30.34F
THREE RIVERS*  CLOUDY    45  38  77 NE3       30.36F
6HR MIN TEMP:  31; 6HR MAX TEMP:  45;


$$
OHZ001>008-015>018-024>025-221900-
NORTHWEST OHIO

CITY           SKY/WX    TMP DP  RH WIND       PRES   REMARKS
DEFIANCE       CLOUDY    48  39  71 N6        30.34F
6HR MIN TEMP:  44; 6HR MAX TEMP:  48;

FINDLAY        CLOUDY    50  41  71 N12       30.30F
6HR MIN TEMP:  45; 6HR MAX TEMP:  50;

TOLEDO EXPRESS CLOUDY    49  40  71 N8        30.32F
6HR MIN TEMP:  44; 6HR MAX TEMP:  49;

TOLEDO METCALF CLOUDY    52  39  61 N8        30.32F
6HR MIN TEMP:  46; 6HR MAX TEMP:  52;

LIMA           CLOUDY    48  41  76 N10       30.31F
6HR MIN TEMP:  44; 6HR MAX TEMP:  49;


$$
AND FOR LAKE MICHIGAN COASTAL AND OPEN LAKE BUOY OBSERVATIONS

STATION/POSITION TEMP    WIND        PRES    VSBY  WAVE
                 AIR SEA DIR/SP/G                  HT/PER
                 (F)     (DEG/KT/KT) (MB)    (MI)  (FT/S)
CALUMET HARBOR    48      50/  6/  7 1026.9F
MICHIGAN CITY     47      20/  8/ 10   N/A
SAINT JOSEPH      49                 1029.1S
SOUTH LAKE BUOY   46 54  110/  4/  6 1029.3F         1/ 5

$$
&&



USA.gov is the U.S. government's official web portal to all federal, state and local government web resources and services.